"Sample Date","Sample Time","Sample Value","Units","Flow Rate","Laser Status","Micron Size 0","Counts/Channel 0","Micron Size 1","Counts/Channel 1","Micron Size 2","Counts/Channel 2","Micron Size 3","Counts/Channel 3","Micron Size 4","Counts/Channel 4","Micron Size 5","Counts/Channel 5","Micron Size 6","Counts/Channel 6","Micron Size 7","Counts/Channel 7","Micron Size 8","Counts/Channel 8","Micron Size 9","Counts/Channel 9","Micron Size 10","Counts/Channel 10","Micron Size 11","Counts/Channel 11","Micron Size 12","Counts/Channel 12","Micron Size 13","Counts/Channel 13","Micron Size 14","Counts/Channel 14","Micron Size 15","Counts/Channel 15","Micron Size 16","Counts/Channel 16","Micron Size 17","Counts/Channel 17","Micron Size 18","Counts/Channel 18","Micron Size 19","Counts/Channel 19","Micron Size 20","Counts/Channel 20","Micron Size 21","Counts/Channel 21","Micron Size 22","Counts/Channel 22","Micron Size 23","Counts/Channel 23","Micron Size 24","Counts/Channel 24","Micron Size 25","Counts/Channel 25","Micron Size 26","Counts/Channel 26","Micron Size 27","Counts/Channel 27","Micron Size 28","Counts/Channel 28","Micron Size 29","Counts/Channel 29","Micron Size 30","Counts/Channel 30","Micron Size 31","Counts/Channel 31"
"03/03/08","17:00:04",50472.000,"cc",28371.234,1,0.100,46415.000,0.200,2672.000,0.300,499.000,0.500,622.000,1.000,264.000,5.000,0
"03/03/08","17:00:10",50205.000,"cc",28324.586,1,0.100,46229.000,0.200,2577.000,0.300,516.000,0.500,634.000,1.000,249.000,5.000,0
"03/03/08","17:00:16",50385.000,"cc",28295.250,1,0.100,46337.000,0.200,2620.000,0.300,534.000,0.500,610.000,1.000,283.000,5.000,1.000
"03/03/08","17:00:22",50259.000,"cc",28326.979,1,0.100,46379.000,0.200,2535.000,0.300,514.000,0.500,567.000,1.000,264.000,5.000,0
"03/03/08","17:00:28",50181.000,"cc",28320.174,1,0.100,46284.000,0.200,2488.000,0.300,509.000,0.500,608.000,1.000,292.000,5.000,0
"03/03/08","17:00:34",50657.000,"cc",28305.473,1,0.100,46622.000,0.200,2597.000,0.300,527.000,0.500,647.000,1.000,264.000,5.000,0
"03/03/08","17:00:40",50270.000,"cc",28294.736,1,0.100,46322.000,0.200,2524.000,0.300,532.000,0.500,618.000,1.000,274.000,5.000,0
"03/03/08","17:00:46",49749.000,"cc",28309.359,1,0.100,45923.000,0.200,2467.000,0.300,515.000,0.500,581.000,1.000,263.000,5.000,0
"03/03/08","17:00:52",49358.000,"cc",28333.262,1,0.100,45431.000,0.200,2511.000,0.300,553.000,0.500,601.000,1.000,262.000,5.000,0
"03/03/08","17:00:58",49593.000,"cc",28314.539,1,0.100,45900.000,0.200,2341.000,0.300,512.000,0.500,601.000,1.000,239.000,5.000,0
"03/03/08","17:01:04",49476.000,"cc",28317.584,1,0.100,45719.000,0.200,2386.000,0.300,517.000,0.500,587.000,1.000,267.000,5.000,0
"03/03/08","17:01:10",49550.000,"cc",28285.025,1,0.100,45715.000,0.200,2453.000,0.300,486.000,0.500,636.000,1.000,259.000,5.000,1.000
"03/03/08","17:01:16",49656.000,"cc",28329.188,1,0.100,45810.000,0.200,2440.000,0.300,546.000,0.500,584.000,1.000,276.000,5.000,0
"03/03/08","17:01:22",49411.000,"cc",28360.395,1,0.100,45498.000,0.200,2458.000,0.300,569.000,0.500,603.000,1.000,283.000,5.000,0
"03/03/08","17:01:28",49161.000,"cc",28317.729,1,0.100,45352.000,0.200,2377.000,0.300,510.000,0.500,638.000,1.000,284.000,5.000,0
"03/03/08","17:01:34",48909.000,"cc",28317.879,1,0.100,45242.000,0.200,2317.000,0.300,492.000,0.500,596.000,1.000,262.000,5.000,0
"03/03/08","17:01:40",48974.000,"cc",28343.920,1,0.100,45347.000,0.200,2334.000,0.300,499.000,0.500,522.000,1.000,272.000,5.000,0
"03/03/08","17:01:46",49050.000,"cc",28352.955,1,0.100,45243.000,0.200,2463.000,0.300,514.000,0.500,568.000,1.000,262.000,5.000,0
"03/03/08","17:01:52",48482.000,"cc",28317.828,1,0.100,44687.000,0.200,2451.000,0.300,515.000,0.500,564.000,1.000,265.000,5.000,0
"03/03/08","17:01:58",48476.000,"cc",28333.141,1,0.100,44760.000,0.200,2354.000,0.300,545.000,0.500,544.000,1.000,273.000,5.000,0
"03/03/08","17:02:04",48909.000,"cc",28250.984,1,0.100,45164.000,0.200,2349.000,0.300,500.000,0.500,624.000,1.000,272.000,5.000,0
"03/03/08","17:02:10",48583.000,"cc",28337.324,1,0.100,44757.000,0.200,2477.000,0.300,509.000,0.500,619.000,1.000,221.000,5.000,0
"03/03/08","17:02:16",48632.000,"cc",28302.422,1,0.100,44898.000,0.200,2414.000,0.300,510.000,0.500,539.000,1.000,271.000,5.000,0
"03/03/08","17:02:22",48432.000,"cc",28299.588,1,0.100,44903.000,0.200,2246.000,0.300,494.000,0.500,541.000,1.000,248.000,5.000,0
"03/03/08","17:02:28",48443.000,"cc",28353.289,1,0.100,44669.000,0.200,2380.000,0.300,538.000,0.500,612.000,1.000,244.000,5.000,0
"03/03/08","17:02:34",48532.000,"cc",28290.443,1,0.100,44766.000,0.200,2387.000,0.300,554.000,0.500,547.000,1.000,278.000,5.000,0
"03/03/08","17:02:40",49253.000,"cc",28310.936,1,0.100,45503.000,0.200,2448.000,0.300,480.000,0.500,581.000,1.000,241.000,5.000,0
"03/03/08","17:02:46",48424.000,"cc",28310.219,1,0.100,44726.000,0.200,2318.000,0.300,537.000,0.500,578.000,1.000,265.000,5.000,0
"03/03/08","17:02:52",48134.000,"cc",28315.641,1,0.100,44357.000,0.200,2325.000,0.300,520.000,0.500,645.000,1.000,287.000,5.000,0
"03/03/08","17:02:58",48014.000,"cc",28347.451,1,0.100,44307.000,0.200,2257.000,0.300,517.000,0.500,641.000,1.000,292.000,5.000,0
"03/03/08","17:03:04",48584.000,"cc",28300.379,1,0.100,44927.000,0.200,2298.000,0.300,535.000,0.500,592.000,1.000,232.000,5.000,0
"03/03/08","17:03:10",48342.000,"cc",28332.731,1,0.100,44700.000,0.200,2324.000,0.300,506.000,0.500,560.000,1.000,252.000,5.000,0
"03/03/08","17:03:16",48661.000,"cc",28333.711,1,0.100,45020.000,0.200,2284.000,0.300,528.000,0.500,562.000,1.000,267.000,5.000,0
"03/03/08","17:03:22",48391.000,"cc",28271.832,1,0.100,44642.000,0.200,2323.000,0.300,527.000,0.500,588.000,1.000,311.000,5.000,0
"03/03/08","17:03:28",48166.000,"cc",28352.641,1,0.100,44493.000,0.200,2271.000,0.300,539.000,0.500,598.000,1.000,265.000,5.000,0
"03/03/08","17:03:34",47952.000,"cc",28311.773,1,0.100,44384.000,0.200,2218.000,0.300,547.000,0.500,572.000,1.000,231.000,5.000,0
"03/03/08","17:03:40",47804.000,"cc",28347.621,1,0.100,44023.000,0.200,2427.000,0.300,505.000,0.500,573.000,1.000,276.000,5.000,0
"03/03/08","17:03:46",48133.000,"cc",28287.467,1,0.100,44489.000,0.200,2339.000,0.300,460.000,0.500,595.000,1.000,250.000,5.000,0
"03/03/08","17:03:52",48116.000,"cc",28274.941,1,0.100,44474.000,0.200,2336.000,0.300,534.000,0.500,528.000,1.000,244.000,5.000,0
"03/03/08","17:03:58",48225.000,"cc",28349.627,1,0.100,44578.000,0.200,2339.000,0.300,499.000,0.500,565.000,1.000,244.000,5.000,0
"03/03/08","17:04:04",48861.000,"cc",28311.078,1,0.100,45087.000,0.200,2368.000,0.300,487.000,0.500,631.000,1.000,288.000,5.000,0
"03/03/08","17:04:10",48359.000,"cc",28315.020,1,0.100,44542.000,0.200,2413.000,0.300,535.000,0.500,583.000,1.000,286.000,5.000,0
"03/03/08","17:04:16",48627.000,"cc",28272.207,1,0.100,44900.000,0.200,2403.000,0.300,491.000,0.500,574.000,1.000,259.000,5.000,0
"03/03/08","17:04:22",48216.000,"cc",28321.820,1,0.100,44496.000,0.200,2336.000,0.300,520.000,0.500,582.000,1.000,282.000,5.000,0
"03/03/08","17:04:28",47915.000,"cc",28337.076,1,0.100,44104.000,0.200,2432.000,0.300,517.000,0.500,603.000,1.000,259.000,5.000,0
"03/03/08","17:04:34",48871.000,"cc",28388.766,1,0.100,44710.000,0.200,2500.000,0.300,665.000,0.500,689.000,1.000,307.000,5.000,0
"03/03/08","17:04:40",47972.000,"cc",28336.049,1,0.100,44272.000,0.200,2287.000,0.300,512.000,0.500,622.000,1.000,279.000,5.000,0
"03/03/08","17:04:46",47801.000,"cc",28328.248,1,0.100,44115.000,0.200,2318.000,0.300,530.000,0.500,572.000,1.000,266.000,5.000,0
"03/03/08","17:04:52",47799.000,"cc",28319.920,1,0.100,44040.000,0.200,2343.000,0.300,501.000,0.500,651.000,1.000,264.000,5.000,0
"03/03/08","17:04:58",47619.000,"cc",28246.967,1,0.100,44064.000,0.200,2195.000,0.300,488.000,0.500,597.000,1.000,275.000,5.000,0
"03/03/08","17:05:04",50717.000,"cc",28340.541,1,0.100,46740.000,0.200,2502.000,0.300,561.000,0.500,619.000,1.000,295.000,5.000,0
"03/03/08","17:05:10",49150.000,"cc",28239.848,1,0.100,45343.000,0.200,2410.000,0.300,501.000,0.500,632.000,1.000,264.000,5.000,0
"03/03/08","17:05:16",48336.000,"cc",28334.398,1,0.100,44605.000,0.200,2273.000,0.300,558.000,0.500,595.000,1.000,305.000,5.000,0
"03/03/08","17:05:22",47426.000,"cc",28318.174,1,0.100,43819.000,0.200,2273.000,0.300,477.000,0.500,580.000,1.000,277.000,5.000,0
"03/03/08","17:05:28",47932.000,"cc",28341.264,1,0.100,44130.000,0.200,2341.000,0.300,537.000,0.500,653.000,1.000,271.000,5.000,0
"03/03/08","17:05:34",47857.000,"cc",28312.682,1,0.100,44161.000,0.200,2366.000,0.300,526.000,0.500,533.000,1.000,271.000,5.000,0
"03/03/08","17:05:40",48188.000,"cc",28320.291,1,0.100,44414.000,0.200,2352.000,0.300,575.000,0.500,593.000,1.000,254.000,5.000,0
"03/03/08","17:05:46",47729.000,"cc",28286.387,1,0.100,44044.000,0.200,2260.000,0.300,521.000,0.500,643.000,1.000,261.000,5.000,0
"03/03/08","17:05:52",49049.000,"cc",28358.395,1,0.100,45098.000,0.200,2474.000,0.300,582.000,0.500,629.000,1.000,266.000,5.000,0
"03/03/08","17:05:58",48833.000,"cc",28333.932,1,0.100,45044.000,0.200,2414.000,0.300,507.000,0.500,593.000,1.000,275.000,5.000,0
"03/03/08","17:06:04",48165.000,"cc",28338.930,1,0.100,44510.000,0.200,2345.000,0.300,509.000,0.500,566.000,1.000,235.000,5.000,0
"03/03/08","17:06:10",47982.000,"cc",28327.006,1,0.100,44380.000,0.200,2242.000,0.300,502.000,0.500,594.000,1.000,264.000,5.000,0
"03/03/08","17:06:16",48357.000,"cc",28353.797,1,0.100,44629.000,0.200,2358.000,0.300,514.000,0.500,578.000,1.000,278.000,5.000,0
"03/03/08","17:06:22",47973.000,"cc",28254.262,1,0.100,44264.000,0.200,2352.000,0.300,543.000,0.500,559.000,1.000,255.000,5.000,0
"03/03/08","17:06:28",48025.000,"cc",28298.031,1,0.100,44338.000,0.200,2261.000,0.300,543.000,0.500,582.000,1.000,301.000,5.000,0
"03/03/08","17:06:34",48200.000,"cc",28341.072,1,0.100,44494.000,0.200,2320.000,0.300,555.000,0.500,569.000,1.000,262.000,5.000,0
"03/03/08","17:06:40",48297.000,"cc",28309.600,1,0.100,44595.000,0.200,2262.000,0.300,558.000,0.500,613.000,1.000,269.000,5.000,0
"03/03/08","17:06:46",47978.000,"cc",28330.234,1,0.100,44376.000,0.200,2266.000,0.300,489.000,0.500,575.000,1.000,272.000,5.000,0
"03/03/08","17:06:52",48105.000,"cc",28359.832,1,0.100,44241.000,0.200,2398.000,0.300,568.000,0.500,627.000,1.000,270.000,5.000,1.000
"03/03/08","17:06:58",48388.000,"cc",28282.813,1,0.100,44508.000,0.200,2393.000,0.300,582.000,0.500,634.000,1.000,271.000,5.000,0
"03/03/08","17:07:04",48096.000,"cc",28290.965,1,0.100,44334.000,0.200,2335.000,0.300,533.000,0.500,607.000,1.000,287.000,5.000,0
"03/03/08","17:07:10",48146.000,"cc",28304.889,1,0.100,44444.000,0.200,2283.000,0.300,539.000,0.500,605.000,1.000,275.000,5.000,0
"03/03/08","17:07:16",47796.000,"cc",28324.600,1,0.100,44150.000,0.200,2282.000,0.300,530.000,0.500,579.000,1.000,255.000,5.000,0
"03/03/08","17:07:22",47634.000,"cc",28339.057,1,0.100,44054.000,0.200,2234.000,0.300,471.000,0.500,613.000,1.000,262.000,5.000,0
"03/03/08","17:07:28",48083.000,"cc",28321.674,1,0.100,44380.000,0.200,2374.000,0.300,504.000,0.500,560.000,1.000,265.000,5.000,0
"03/03/08","17:07:34",47759.000,"cc",28333.053,1,0.100,44099.000,0.200,2389.000,0.300,488.000,0.500,570.000,1.000,213.000,5.000,0
"03/03/08","17:07:40",47965.000,"cc",28295.033,1,0.100,44267.000,0.200,2352.000,0.300,492.000,0.500,599.000,1.000,255.000,5.000,0
"03/03/08","17:07:46",47921.000,"cc",28309.961,1,0.100,44347.000,0.200,2298.000,0.300,466.000,0.500,557.000,1.000,253.000,5.000,0
"03/03/08","17:07:52",47646.000,"cc",28298.123,1,0.100,44008.000,0.200,2313.000,0.300,488.000,0.500,591.000,1.000,245.000,5.000,1.000
"03/03/08","17:07:58",47748.000,"cc",28345.602,1,0.100,44173.000,0.200,2307.000,0.300,496.000,0.500,533.000,1.000,239.000,5.000,0
"03/03/08","17:08:04",48039.000,"cc",28337.518,1,0.100,44419.000,0.200,2284.000,0.300,530.000,0.500,567.000,1.000,239.000,5.000,0
"03/03/08","17:08:10",47682.000,"cc",28277.467,1,0.100,43987.000,0.200,2325.000,0.300,483.000,0.500,614.000,1.000,273.000,5.000,0
"03/03/08","17:08:16",47992.000,"cc",28272.449,1,0.100,44313.000,0.200,2338.000,0.300,527.000,0.500,559.000,1.000,255.000,5.000,0
"03/03/08","17:08:22",48150.000,"cc",28327.113,1,0.100,44431.000,0.200,2355.000,0.300,507.000,0.500,593.000,1.000,264.000,5.000,0
"03/03/08","17:08:28",47828.000,"cc",28371.465,1,0.100,44094.000,0.200,2364.000,0.300,508.000,0.500,586.000,1.000,276.000,5.000,0
"03/03/08","17:08:34",47838.000,"cc",28287.514,1,0.100,44228.000,0.200,2338.000,0.300,482.000,0.500,553.000,1.000,237.000,5.000,0
"03/03/08","17:08:40",48164.000,"cc",28283.500,1,0.100,44483.000,0.200,2340.000,0.300,457.000,0.500,609.000,1.000,275.000,5.000,0
"03/03/08","17:08:46",48052.000,"cc",28299.785,1,0.100,44546.000,0.200,2238.000,0.300,475.000,0.500,545.000,1.000,248.000,5.000,0
"03/03/08","17:08:52",47701.000,"cc",28358.379,1,0.100,44124.000,0.200,2224.000,0.300,512.000,0.500,582.000,1.000,259.000,5.000,0
"03/03/08","17:08:58",47576.000,"cc",28299.039,1,0.100,43928.000,0.200,2297.000,0.300,510.000,0.500,583.000,1.000,258.000,5.000,0
"03/03/08","17:09:04",48416.000,"cc",28361.748,1,0.100,44752.000,0.200,2322.000,0.300,510.000,0.500,560.000,1.000,272.000,5.000,0
"03/03/08","17:09:10",48078.000,"cc",28316.889,1,0.100,44348.000,0.200,2324.000,0.300,514.000,0.500,629.000,1.000,263.000,5.000,0
"03/03/08","17:09:16",47835.000,"cc",28297.539,1,0.100,44144.000,0.200,2312.000,0.300,514.000,0.500,605.000,1.000,260.000,5.000,0
"03/03/08","17:09:22",48045.000,"cc",28310.887,1,0.100,44504.000,0.200,2281.000,0.300,453.000,0.500,569.000,1.000,238.000,5.000,0
"03/03/08","17:09:28",48138.000,"cc",28331.953,1,0.100,44597.000,0.200,2214.000,0.300,512.000,0.500,579.000,1.000,236.000,5.000,0
"03/03/08","17:09:34",48003.000,"cc",28256.420,1,0.100,44372.000,0.200,2308.000,0.300,505.000,0.500,580.000,1.000,238.000,5.000,0
"03/03/08","17:09:40",47707.000,"cc",28235.857,1,0.100,44117.000,0.200,2248.000,0.300,485.000,0.500,586.000,1.000,271.000,5.000,0
"03/03/08","17:09:46",47624.000,"cc",28326.961,1,0.100,44073.000,0.200,2254.000,0.300,501.000,0.500,551.000,1.000,245.000,5.000,0
"03/03/08","17:09:52",47725.000,"cc",28366.412,1,0.100,44169.000,0.200,2296.000,0.300,460.000,0.500,557.000,1.000,243.000,5.000,0
"03/03/08","17:09:58",47800.000,"cc",28363.785,1,0.100,44209.000,0.200,2280.000,0.300,470.000,0.500,562.000,1.000,279.000,5.000,0
"03/03/08","17:10:04",48024.000,"cc",28308.389,1,0.100,44384.000,0.200,2316.000,0.300,494.000,0.500,581.000,1.000,249.000,5.000,0
"03/03/08","17:10:10",48095.000,"cc",28316.703,1,0.100,44530.000,0.200,2279.000,0.300,487.000,0.500,548.000,1.000,251.000,5.000,0
"03/03/08","17:10:16",47644.000,"cc",28302.055,1,0.100,44058.000,0.200,2227.000,0.300,520.000,0.500,567.000,1.000,272.000,5.000,0
"03/03/08","17:10:22",47697.000,"cc",28331.172,1,0.100,44140.000,0.200,2219.000,0.300,490.000,0.500,600.000,1.000,248.000,5.000,0
"03/03/08","17:10:28",47831.000,"cc",28342.361,1,0.100,44278.000,0.200,2225.000,0.300,485.000,0.500,567.000,1.000,276.000,5.000,0
"03/03/08","17:10:34",48030.000,"cc",28287.469,1,0.100,44522.000,0.200,2195.000,0.300,487.000,0.500,602.000,1.000,224.000,5.000,0
"03/03/08","17:10:40",47407.000,"cc",28275.547,1,0.100,43920.000,0.200,2184.000,0.300,505.000,0.500,564.000,1.000,234.000,5.000,0
"03/03/08","17:10:46",47832.000,"cc",28395.973,1,0.100,44289.000,0.200,2204.000,0.300,487.000,0.500,555.000,1.000,297.000,5.000,0
"03/03/08","17:10:52",47547.000,"cc",28340.547,1,0.100,43938.000,0.200,2297.000,0.300,483.000,0.500,592.000,1.000,237.000,5.000,0
"03/03/08","17:10:58",47674.000,"cc",28285.576,1,0.100,44128.000,0.200,2225.000,0.300,492.000,0.500,578.000,1.000,251.000,5.000,0
"03/03/08","17:11:04",47686.000,"cc",28250.147,1,0.100,44155.000,0.200,2258.000,0.300,454.000,0.500,571.000,1.000,247.000,5.000,1.000
"03/03/08","17:11:10",47769.000,"cc",28291.553,1,0.100,44277.000,0.200,2244.000,0.300,457.000,0.500,552.000,1.000,239.000,5.000,0
"03/03/08","17:11:16",48161.000,"cc",28303.357,1,0.100,44442.000,0.200,2328.000,0.300,518.000,0.500,594.000,1.000,279.000,5.000,0
"03/03/08","17:11:22",48064.000,"cc",28345.856,1,0.100,44537.000,0.200,2216.000,0.300,463.000,0.500,578.000,1.000,270.000,5.000,0
"03/03/08","17:11:28",47980.000,"cc",28356.650,1,0.100,44131.000,0.200,2375.000,0.300,582.000,0.500,609.000,1.000,283.000,5.000,0
"03/03/08","17:11:34",47706.000,"cc",28307.938,1,0.100,44013.000,0.200,2335.000,0.300,513.000,0.500,581.000,1.000,264.000,5.000,0
"03/03/08","17:11:40",47455.000,"cc",28302.154,1,0.100,43879.000,0.200,2250.000,0.300,511.000,0.500,545.000,1.000,270.000,5.000,0
"03/03/08","17:11:46",47712.000,"cc",28299.590,1,0.100,44063.000,0.200,2302.000,0.300,503.000,0.500,585.000,1.000,259.000,5.000,0
"03/03/08","17:11:52",47823.000,"cc",28373.813,1,0.100,44181.000,0.200,2361.000,0.300,478.000,0.500,551.000,1.000,252.000,5.000,0
"03/03/08","17:11:58",47705.000,"cc",28302.285,1,0.100,44183.000,0.200,2234.000,0.300,478.000,0.500,574.000,1.000,236.000,5.000,0
"03/03/08","17:12:04",48043.000,"cc",28260.883,1,0.100,44436.000,0.200,2262.000,0.300,500.000,0.500,577.000,1.000,268.000,5.000,0
"03/03/08","17:12:10",47632.000,"cc",28298.529,1,0.100,44146.000,0.200,2183.000,0.300,514.000,0.500,551.000,1.000,238.000,5.000,0
"03/03/08","17:12:16",47662.000,"cc",28383.848,1,0.100,44215.000,0.200,2149.000,0.300,452.000,0.500,579.000,1.000,267.000,5.000,0
"03/03/08","17:12:22",47871.000,"cc",28320.670,1,0.100,44320.000,0.200,2292.000,0.300,460.000,0.500,521.000,1.000,278.000,5.000,0
"03/03/08","17:12:28",47417.000,"cc",28323.213,1,0.100,43814.000,0.200,2288.000,0.300,490.000,0.500,559.000,1.000,266.000,5.000,0
"03/03/08","17:12:34",47732.000,"cc",28308.711,1,0.100,44134.000,0.200,2244.000,0.300,527.000,0.500,562.000,1.000,265.000,5.000,0
"03/03/08","17:12:40",48252.000,"cc",28291.229,1,0.100,44654.000,0.200,2307.000,0.300,476.000,0.500,573.000,1.000,242.000,5.000,0
"03/03/08","17:12:46",47923.000,"cc",28319.734,1,0.100,44459.000,0.200,2201.000,0.300,474.000,0.500,546.000,1.000,242.000,5.000,1.000
"03/03/08","17:12:52",47590.000,"cc",28323.408,1,0.100,43974.000,0.200,2321.000,0.300,510.000,0.500,544.000,1.000,240.000,5.000,1.000
"03/03/08","17:12:58",48061.000,"cc",28299.283,1,0.100,44422.000,0.200,2362.000,0.300,460.000,0.500,574.000,1.000,243.000,5.000,0
"03/03/08","17:13:04",47611.000,"cc",28307.518,1,0.100,44100.000,0.200,2223.000,0.300,504.000,0.500,549.000,1.000,235.000,5.000,0
"03/03/08","17:13:10",47742.000,"cc",28305.674,1,0.100,44255.000,0.200,2159.000,0.300,488.000,0.500,601.000,1.000,239.000,5.000,0
"03/03/08","17:13:16",47938.000,"cc",28337.938,1,0.100,44274.000,0.200,2332.000,0.300,456.000,0.500,615.000,1.000,261.000,5.000,0
"03/03/08","17:13:22",47596.000,"cc",28348.941,1,0.100,44002.000,0.200,2274.000,0.300,526.000,0.500,564.000,1.000,230.000,5.000,0
"03/03/08","17:13:28",47918.000,"cc",28333.496,1,0.100,44320.000,0.200,2256.000,0.300,499.000,0.500,584.000,1.000,259.000,5.000,0
"03/03/08","17:13:34",47540.000,"cc",28309.674,1,0.100,43867.000,0.200,2383.000,0.300,463.000,0.500,577.000,1.000,249.000,5.000,1.000
"03/03/08","17:13:40",47755.000,"cc",28270.133,1,0.100,44150.000,0.200,2297.000,0.300,483.000,0.500,583.000,1.000,242.000,5.000,0
"03/03/08","17:13:46",48276.000,"cc",28354.996,1,0.100,44633.000,0.200,2260.000,0.300,479.000,0.500,624.000,1.000,280.000,5.000,0
"03/03/08","17:13:52",47757.000,"cc",28412.232,1,0.100,44210.000,0.200,2277.000,0.300,460.000,0.500,526.000,1.000,284.000,5.000,0
"03/03/08","17:13:58",48004.000,"cc",28287.713,1,0.100,44480.000,0.200,2246.000,0.300,443.000,0.500,567.000,1.000,268.000,5.000,0
"03/03/08","17:14:04",47534.000,"cc",28231.270,1,0.100,43926.000,0.200,2257.000,0.300,465.000,0.500,628.000,1.000,257.000,5.000,1.000
"03/03/08","17:14:10",47948.000,"cc",28302.334,1,0.100,44240.000,0.200,2382.000,0.300,525.000,0.500,540.000,1.000,261.000,5.000,0
"03/03/08","17:14:16",48036.000,"cc",28333.924,1,0.100,44507.000,0.200,2237.000,0.300,452.000,0.500,584.000,1.000,256.000,5.000,0
"03/03/08","17:14:22",47947.000,"cc",28330.174,1,0.100,44404.000,0.200,2285.000,0.300,465.000,0.500,544.000,1.000,249.000,5.000,0
"03/03/08","17:14:28",47806.000,"cc",28283.467,1,0.100,44211.000,0.200,2320.000,0.300,488.000,0.500,559.000,1.000,228.000,5.000,0
"03/03/08","17:14:34",47941.000,"cc",28335.535,1,0.100,44395.000,0.200,2312.000,0.300,507.000,0.500,493.000,1.000,234.000,5.000,0
"03/03/08","17:14:40",47784.000,"cc",28337.262,1,0.100,44273.000,0.200,2213.000,0.300,481.000,0.500,571.000,1.000,246.000,5.000,0
"03/03/08","17:14:46",47543.000,"cc",28325.522,1,0.100,43948.000,0.200,2245.000,0.300,491.000,0.500,605.000,1.000,254.000,5.000,0
"03/03/08","17:14:52",47754.000,"cc",28349.775,1,0.100,44267.000,0.200,2233.000,0.300,478.000,0.500,530.000,1.000,246.000,5.000,0
"03/03/08","17:14:58",48228.000,"cc",28321.572,1,0.100,44727.000,0.200,2238.000,0.300,454.000,0.500,547.000,1.000,262.000,5.000,0
"03/03/08","17:15:04",47550.000,"cc",28336.621,1,0.100,44014.000,0.200,2237.000,0.300,487.000,0.500,569.000,1.000,243.000,5.000,0
"03/03/08","17:15:10",47782.000,"cc",28270.967,1,0.100,44099.000,0.200,2318.000,0.300,497.000,0.500,589.000,1.000,279.000,5.000,0
"03/03/08","17:15:16",47388.000,"cc",28298.633,1,0.100,43821.000,0.200,2262.000,0.300,505.000,0.500,563.000,1.000,237.000,5.000,0
"03/03/08","17:15:22",47733.000,"cc",28292.061,1,0.100,44193.000,0.200,2213.000,0.300,526.000,0.500,534.000,1.000,267.000,5.000,0
"03/03/08","17:15:28",48156.000,"cc",28341.191,1,0.100,44593.000,0.200,2246.000,0.300,499.000,0.500,560.000,1.000,258.000,5.000,0
"03/03/08","17:15:34",47191.000,"cc",28265.992,1,0.100,43683.000,0.200,2240.000,0.300,474.000,0.500,543.000,1.000,251.000,5.000,0
"03/03/08","17:15:40",48114.000,"cc",28265.713,1,0.100,44498.000,0.200,2326.000,0.300,492.000,0.500,566.000,1.000,232.000,5.000,0
"03/03/08","17:15:46",47969.000,"cc",28339.844,1,0.100,44360.000,0.200,2308.000,0.300,481.000,0.500,534.000,1.000,286.000,5.000,0
"03/03/08","17:15:52",47556.000,"cc",28404.482,1,0.100,44001.000,0.200,2245.000,0.300,490.000,0.500,560.000,1.000,260.000,5.000,0
"03/03/08","17:15:58",48347.000,"cc",28380.436,1,0.100,44754.000,0.200,2263.000,0.300,505.000,0.500,569.000,1.000,256.000,5.000,0
"03/03/08","17:16:04",47205.000,"cc",28261.129,1,0.100,43676.000,0.200,2289.000,0.300,486.000,0.500,524.000,1.000,230.000,5.000,0
"03/03/08","17:16:10",47136.000,"cc",28221.793,1,0.100,43708.000,0.200,2155.000,0.300,498.000,0.500,543.000,1.000,232.000,5.000,0
"03/03/08","17:16:16",47612.000,"cc",28350.369,1,0.100,44003.000,0.200,2266.000,0.300,473.000,0.500,612.000,1.000,258.000,5.000,0
"03/03/08","17:16:22",47175.000,"cc",28354.461,1,0.100,43659.000,0.200,2195.000,0.300,511.000,0.500,569.000,1.000,241.000,5.000,0
"03/03/08","17:16:28",47778.000,"cc",28299.949,1,0.100,44123.000,0.200,2329.000,0.300,488.000,0.500,580.000,1.000,258.000,5.000,0
"03/03/08","17:16:34",47792.000,"cc",28285.971,1,0.100,44282.000,0.200,2253.000,0.300,465.000,0.500,553.000,1.000,239.000,5.000,0
"03/03/08","17:16:40",47636.000,"cc",28337.684,1,0.100,44125.000,0.200,2228.000,0.300,467.000,0.500,531.000,1.000,285.000,5.000,0
"03/03/08","17:16:46",47761.000,"cc",28301.441,1,0.100,44187.000,0.200,2316.000,0.300,483.000,0.500,524.000,1.000,251.000,5.000,0
"03/03/08","17:16:52",47946.000,"cc",28319.262,1,0.100,44355.000,0.200,2319.000,0.300,444.000,0.500,585.000,1.000,243.000,5.000,0
"03/03/08","17:16:58",47664.000,"cc",28260.195,1,0.100,44078.000,0.200,2280.000,0.300,523.000,0.500,541.000,1.000,242.000,5.000,0
"03/03/08","17:17:04",47441.000,"cc",28388.711,1,0.100,43814.000,0.200,2337.000,0.300,460.000,0.500,583.000,1.000,247.000,5.000,0
"03/03/08","17:17:10",47696.000,"cc",28274.988,1,0.100,44119.000,0.200,2246.000,0.300,523.000,0.500,558.000,1.000,250.000,5.000,0
"03/03/08","17:17:16",47878.000,"cc",28304.998,1,0.100,44302.000,0.200,2278.000,0.300,472.000,0.500,572.000,1.000,254.000,5.000,0